Location: Newark
(54.6833°N, 25.2833°E)
Time: 01:10:16
(UTC+00:00)

A-11 Canister half - Pass Details

Date: 27 January 2021
Orbit: 1525 x 1684 km, 47.3° (Epoch: 05 March)

Event Time Altitude Azimuth Distance (km) Brightness Sun altitude
Rises 19:38:47 0° 283° (WNW) 4,772 12.4 -40.9°
Reaches altitude 10° 19:43:47 10° 261° (W) 3,817 11.5 -41.6°
Maximum altitude 19:48:17 14° 233° (SW) 3,508 11.0 -42.1°
Enters shadow 19:51:09 12° 214° (SW) 3,662 10.9 -42.5°
